Time,TemperatureF,DewpointF,PressureIn,WindDirection,WindDirectionDegrees,WindSpeedMPH,WindSpeedGustMPH,Humidity,HourlyPrecipIn,Conditions,Clouds,dailyrainin,SoftwareType,DateUTC
2013-01-14 00:11:00,-17.5,-22.0,29.91,North,360,0.0,-999.0,79,-99.99,,,0.00,weatherlink.com 1.10,2013-01-14 07:11:00,
2013-01-14 00:27:00,-17.5,-22.0,29.90,North,360,0.0,-999.0,78,-99.99,,,0.00,weatherlink.com 1.10,2013-01-14 07:27:00,
2013-01-14 00:41:00,-17.9,-23.0,29.90,North,360,0.0,-999.0,78,-99.99,,,0.00,weatherlink.com 1.10,2013-01-14 07:41:00,
2013-01-14 00:57:00,-17.9,-23.0,29.90,North,5,0.0,-999.0,79,-99.99,,,0.00,weatherlink.com 1.10,2013-01-14 07:57:00,
2013-01-14 01:11:00,-17.7,-22.0,29.90,North,5,0.0,-999.0,79,-99.99,,,0.00,weatherlink.com 1.10,2013-01-14 08:11:00,
2013-01-14 01:25:00,-17.5,-22.0,29.90,North,5,0.0,-999.0,79,-99.99,,,0.00,weatherlink.com 1.10,2013-01-14 08:25:00,
2013-01-14 01:43:00,-17.6,-22.0,29.90,North,360,0.0,-999.0,79,-99.99,,,0.00,weatherlink.com 1.10,2013-01-14 08:43:00,
2013-01-14 01:57:00,-17.8,-23.0,29.90,North,5,0.0,-999.0,78,-99.99,,,0.00,weatherlink.com 1.10,2013-01-14 08:57:00,
2013-01-14 02:10:00,-17.9,-23.0,29.91,North,5,0.0,-999.0,78,-99.99,,,0.00,weatherlink.com 1.10,2013-01-14 09:10:00,
2013-01-14 02:26:00,-18.1,-23.0,29.90,North,5,0.0,-999.0,79,-99.99,,,0.00,weatherlink.com 1.10,2013-01-14 09:26:00,
2013-01-14 02:48:00,-18.4,-23.0,29.91,North,5,0.0,-999.0,78,-99.99,,,0.00,weatherlink.com 1.10,2013-01-14 09:48:00,
2013-01-14 02:55:00,-18.3,-23.0,29.91,North,360,0.0,-999.0,79,-99.99,,,0.00,weatherlink.com 1.10,2013-01-14 09:55:00,
2013-01-14 03:11:00,-18.3,-23.0,29.91,North,5,0.0,-999.0,79,-99.99,,,0.00,weatherlink.com 1.10,2013-01-14 10:11:00,
2013-01-14 03:25:00,-18.1,-23.0,29.91,North,5,0.0,-999.0,79,-99.99,,,0.00,weatherlink.com 1.10,2013-01-14 10:25:00,
2013-01-14 03:41:00,-17.7,-22.0,29.91,North,5,0.0,-999.0,80,-99.99,,,0.00,weatherlink.com 1.10,2013-01-14 10:41:00,
2013-01-14 03:58:00,-17.2,-21.0,29.90,North,5,0.0,-999.0,81,-99.99,,,0.00,weatherlink.com 1.10,2013-01-14 10:58:00,
2013-01-14 04:10:00,-16.7,-21.0,29.91,North,5,0.0,-999.0,80,-99.99,,,0.00,weatherlink.com 1.10,2013-01-14 11:10:00,
2013-01-14 04:28:00,-16.3,-20.0,29.90,North,5,0.0,-999.0,81,-99.99,,,0.00,weatherlink.com 1.10,2013-01-14 11:28:00,
2013-01-14 04:42:00,-15.9,-20.0,29.90,North,5,0.0,-999.0,80,-99.99,,,0.00,weatherlink.com 1.10,2013-01-14 11:42:00,
2013-01-14 04:58:00,-15.6,-20.0,29.89,North,5,0.0,-999.0,80,-99.99,,,0.00,weatherlink.com 1.10,2013-01-14 11:58:00,
2013-01-14 05:10:00,-14.9,-19.0,29.89,North,360,0.0,-999.0,82,-99.99,,,0.00,weatherlink.com 1.10,2013-01-14 12:10:00,
2013-01-14 05:26:00,-14.6,-19.0,29.89,North,5,0.0,-999.0,80,-99.99,,,0.00,weatherlink.com 1.10,2013-01-14 12:26:00,
2013-01-14 05:42:00,-14.2,-18.0,29.89,North,360,0.0,-999.0,81,-99.99,,,0.00,weatherlink.com 1.10,2013-01-14 12:42:00,
2013-01-14 06:00:00,-13.8,-18.0,29.90,North,5,0.0,-999.0,81,-99.99,,,0.00,weatherlink.com 1.10,2013-01-14 13:00:00,
2013-01-14 06:10:00,-13.7,-18.0,29.90,North,5,0.0,-999.0,81,-99.99,,,0.00,weatherlink.com 1.10,2013-01-14 13:10:00,
2013-01-14 06:26:00,-13.6,-18.0,29.90,North,360,0.0,-999.0,80,-99.99,,,0.00,weatherlink.com 1.10,2013-01-14 13:26:00,
2013-01-14 06:41:00,-13.6,-18.0,29.91,North,360,0.0,-999.0,80,-99.99,,,0.00,weatherlink.com 1.10,2013-01-14 13:41:00,
2013-01-14 06:56:00,-13.7,-18.0,29.91,North,5,0.0,-999.0,80,-99.99,,,0.00,weatherlink.com 1.10,2013-01-14 13:56:00,
2013-01-14 07:10:00,-13.8,-18.0,29.92,North,5,0.0,-999.0,81,-99.99,,,0.00,weatherlink.com 1.10,2013-01-14 14:10:00,
2013-01-14 07:26:00,-13.4,-18.0,29.92,North,5,0.0,-999.0,81,-99.99,,,0.00,weatherlink.com 1.10,2013-01-14 14:26:00,
2013-01-14 07:40:00,-13.4,-18.0,29.93,North,5,0.0,-999.0,80,-99.99,,,0.00,weatherlink.com 1.10,2013-01-14 14:40:00,
2013-01-14 07:56:00,-13.3,-18.0,29.93,North,360,0.0,-999.0,80,-99.99,,,0.00,weatherlink.com 1.10,2013-01-14 14:56:00,
2013-01-14 08:12:00,-13.1,-17.0,29.93,North,5,0.0,-999.0,81,-99.99,,,0.00,weatherlink.com 1.10,2013-01-14 15:12:00,
2013-01-14 08:26:00,-12.6,-17.0,29.93,North,5,0.0,-999.0,81,-99.99,,,0.00,weatherlink.com 1.10,2013-01-14 15:26:00,
2013-01-14 08:40:00,-12.0,-16.0,29.93,North,360,0.0,-999.0,81,-99.99,,,0.00,weatherlink.com 1.10,2013-01-14 15:40:00,
2013-01-14 09:00:00,-11.3,-16.0,29.93,North,5,0.0,-999.0,81,-99.99,,,0.00,weatherlink.com 1.10,2013-01-14 16:00:00,
2013-01-14 09:10:00,-11.2,-16.0,29.93,North,5,0.0,-999.0,80,-99.99,,,0.00,weatherlink.com 1.10,2013-01-14 16:10:00,
2013-01-14 09:43:00,-7.2,-11.0,29.93,North,5,0.0,-999.0,82,-99.99,,,0.00,weatherlink.com 1.10,2013-01-14 16:43:00,
2013-01-14 09:59:00,-3.0,-8.0,29.93,North,9,0.0,-999.0,79,-99.99,,,0.00,weatherlink.com 1.10,2013-01-14 16:59:00,
2013-01-14 10:11:00,-2.1,-9.0,29.92,North,11,0.0,-999.0,71,-99.99,,,0.00,weatherlink.com 1.10,2013-01-14 17:11:00,
2013-01-14 10:27:00,-1.0,-10.0,29.92,NE,38,0.0,-999.0,67,-99.99,,,0.00,weatherlink.com 1.10,2013-01-14 17:27:00,
2013-01-14 10:40:00,0.8,-8.0,29.92,East,88,0.0,-999.0,65,-99.99,,,0.00,weatherlink.com 1.10,2013-01-14 17:40:00,
2013-01-14 10:56:00,4.7,-6.0,29.91,NNE,27,0.0,-999.0,62,-99.99,,,0.00,weatherlink.com 1.10,2013-01-14 17:56:00,
2013-01-14 11:12:00,6.5,-7.0,29.90,North,5,0.0,-999.0,55,-99.99,,,0.00,weatherlink.com 1.10,2013-01-14 18:12:00,
2013-01-14 11:28:00,5.4,-8.0,29.90,North,360,0.0,-999.0,55,-99.99,,,0.00,weatherlink.com 1.10,2013-01-14 18:28:00,
2013-01-14 11:42:00,5.2,-7.0,29.89,North,11,2.0,-999.0,57,-99.99,,,0.00,weatherlink.com 1.10,2013-01-14 18:42:00,
2013-01-14 11:56:00,6.0,-6.0,29.88,North,10,1.0,-999.0,57,-99.99,,,0.00,weatherlink.com 1.10,2013-01-14 18:56:00,
2013-01-14 12:10:00,5.8,-7.0,29.88,North,9,0.0,-999.0,56,-99.99,,,0.00,weatherlink.com 1.10,2013-01-14 19:10:00,
2013-01-14 12:25:00,6.0,-6.0,29.87,North,5,3.0,-999.0,57,-99.99,,,0.00,weatherlink.com 1.10,2013-01-14 19:25:00,
2013-01-14 12:42:00,6.9,-7.0,29.86,NNE,33,6.0,-999.0,53,-99.99,,,0.00,weatherlink.com 1.10,2013-01-14 19:42:00,
2013-01-14 13:02:00,6.9,-7.0,29.86,NE,38,0.0,-999.0,53,-99.99,,,0.00,weatherlink.com 1.10,2013-01-14 20:02:00,
2013-01-14 13:13:00,6.7,-7.0,29.85,NNE,19,0.0,-999.0,54,-99.99,,,0.00,weatherlink.com 1.10,2013-01-14 20:13:00,
2013-01-14 13:25:00,6.8,-7.0,29.85,ENE,73,1.0,-999.0,53,-99.99,,,0.00,weatherlink.com 1.10,2013-01-14 20:25:00,
2013-01-14 13:41:00,7.7,-6.0,29.86,North,5,0.0,-999.0,53,-99.99,,,0.00,weatherlink.com 1.10,2013-01-14 20:41:00,
2013-01-14 13:59:00,7.4,-6.0,29.86,NNE,27,6.0,-999.0,54,-99.99,,,0.00,weatherlink.com 1.10,2013-01-14 20:59:00,
2013-01-14 14:13:00,6.8,-5.0,29.86,North,11,2.0,-999.0,59,-99.99,,,0.00,weatherlink.com 1.10,2013-01-14 21:13:00,
2013-01-14 14:27:00,6.0,-5.0,29.86,NE,34,0.0,-999.0,62,-99.99,,,0.00,weatherlink.com 1.10,2013-01-14 21:27:00,
2013-01-14 14:41:00,5.6,-4.0,29.87,North,360,3.0,-999.0,65,-99.99,,,0.00,weatherlink.com 1.10,2013-01-14 21:41:00,
2013-01-14 14:56:00,5.2,-4.0,29.88,NE,43,0.0,-999.0,67,-99.99,,,0.00,weatherlink.com 1.10,2013-01-14 21:56:00,
2013-01-14 15:15:00,5.0,-3.0,29.89,East,86,4.0,-999.0,71,-99.99,,,0.00,weatherlink.com 1.10,2013-01-14 22:15:00,
2013-01-14 15:29:00,4.9,-3.0,29.90,NE,36,0.0,-999.0,71,-99.99,,,0.00,weatherlink.com 1.10,2013-01-14 22:29:00,
2013-01-14 15:43:00,4.6,-3.0,29.90,NE,34,0.0,-999.0,70,-99.99,,,0.00,weatherlink.com 1.10,2013-01-14 22:43:00,
2013-01-14 15:57:00,4.5,-4.0,29.91,NNE,30,2.0,-999.0,68,-99.99,,,0.00,weatherlink.com 1.10,2013-01-14 22:57:00,
2013-01-14 16:13:00,4.4,-4.0,29.91,NNE,28,0.0,-999.0,67,-99.99,,,0.00,weatherlink.com 1.10,2013-01-14 23:13:00,
2013-01-14 16:25:00,4.3,-4.0,29.92,NNE,29,0.0,-999.0,67,-99.99,,,0.00,weatherlink.com 1.10,2013-01-14 23:25:00,
2013-01-14 16:41:00,4.4,-5.0,29.92,NE,56,0.0,-999.0,66,-99.99,,,0.00,weatherlink.com 1.10,2013-01-14 23:41:00,
2013-01-14 16:59:00,4.0,-5.0,29.93,NE,42,1.0,-999.0,65,-99.99,,,0.00,weatherlink.com 1.10,2013-01-14 23:59:00,
2013-01-14 17:13:00,3.4,-5.0,29.93,NE,41,0.0,-999.0,67,-99.99,,,0.00,weatherlink.com 1.10,2013-01-15 00:13:00,
2013-01-14 17:27:00,2.7,-6.0,29.94,NE,40,0.0,-999.0,67,-99.99,,,0.00,weatherlink.com 1.10,2013-01-15 00:27:00,
2013-01-14 17:41:00,1.8,-7.0,29.95,NE,40,0.0,-999.0,67,-99.99,,,0.00,weatherlink.com 1.10,2013-01-15 00:41:00,
2013-01-14 17:55:00,0.5,-8.0,29.95,NE,40,0.0,-999.0,68,-99.99,,,0.00,weatherlink.com 1.10,2013-01-15 00:55:00,
2013-01-14 18:10:00,-1.2,-9.0,29.96,NE,40,0.0,-999.0,69,-99.99,,,0.00,weatherlink.com 1.10,2013-01-15 01:10:00,
2013-01-14 18:26:00,-3.2,-10.0,29.96,NE,40,0.0,-999.0,71,-99.99,,,0.00,weatherlink.com 1.10,2013-01-15 01:26:00,
2013-01-14 18:42:00,-5.1,-12.0,29.97,NE,40,0.0,-999.0,73,-99.99,,,0.00,weatherlink.com 1.10,2013-01-15 01:42:00,
2013-01-14 18:57:00,-6.5,-12.0,29.98,NE,40,0.0,-999.0,75,-99.99,,,0.00,weatherlink.com 1.10,2013-01-15 01:57:00,
2013-01-14 19:11:00,-7.4,-13.0,29.98,NE,40,0.0,-999.0,76,-99.99,,,0.00,weatherlink.com 1.10,2013-01-15 02:11:00,
2013-01-14 19:25:00,-8.0,-13.0,29.98,NE,40,0.0,-999.0,78,-99.99,,,0.00,weatherlink.com 1.10,2013-01-15 02:25:00,
2013-01-14 19:41:00,-8.7,-14.0,29.98,NE,40,0.0,-999.0,77,-99.99,,,0.00,weatherlink.com 1.10,2013-01-15 02:41:00,
2013-01-14 19:56:00,-9.5,-15.0,29.98,NE,40,0.0,-999.0,77,-99.99,,,0.00,weatherlink.com 1.10,2013-01-15 02:56:00,
2013-01-14 20:10:00,-10.3,-15.0,29.98,NE,40,0.0,-999.0,78,-99.99,,,0.00,weatherlink.com 1.10,2013-01-15 03:10:00,
2013-01-14 20:26:00,-11.1,-16.0,29.99,NE,40,0.0,-999.0,80,-99.99,,,0.00,weatherlink.com 1.10,2013-01-15 03:26:00,
2013-01-14 20:42:00,-11.4,-16.0,29.99,NE,40,0.0,-999.0,81,-99.99,,,0.00,weatherlink.com 1.10,2013-01-15 03:42:00,
2013-01-14 20:55:00,-11.4,-15.0,29.99,NE,40,0.0,-999.0,82,-99.99,,,0.00,weatherlink.com 1.10,2013-01-15 03:55:00,
2013-01-14 21:15:00,-11.9,-16.0,29.99,NE,40,0.0,-999.0,81,-99.99,,,0.00,weatherlink.com 1.10,2013-01-15 04:15:00,
2013-01-14 21:25:00,-12.4,-17.0,29.99,NE,40,0.0,-999.0,80,-99.99,,,0.00,weatherlink.com 1.10,2013-01-15 04:25:00,
2013-01-14 21:43:00,-13.5,-18.0,29.99,NE,40,0.0,-999.0,79,-99.99,,,0.00,weatherlink.com 1.10,2013-01-15 04:43:00,
2013-01-14 21:55:00,-14.3,-19.0,30.00,NE,40,0.0,-999.0,79,-99.99,,,0.00,weatherlink.com 1.10,2013-01-15 04:55:00,
2013-01-14 22:11:00,-15.3,-20.0,29.99,NE,40,0.0,-999.0,79,-99.99,,,0.00,weatherlink.com 1.10,2013-01-15 05:11:00,
2013-01-14 22:25:00,-16.0,-20.0,29.99,NE,40,0.0,-999.0,80,-99.99,,,0.00,weatherlink.com 1.10,2013-01-15 05:25:00,
2013-01-14 22:43:00,-16.7,-21.0,29.99,NE,40,0.0,-999.0,79,-99.99,,,0.00,weatherlink.com 1.10,2013-01-15 05:43:00,
2013-01-14 22:58:00,-17.3,-22.0,30.00,NE,40,0.0,-999.0,79,-99.99,,,0.00,weatherlink.com 1.10,2013-01-15 05:58:00,
2013-01-14 23:10:00,-17.8,-22.0,30.00,NE,40,0.0,-999.0,79,-99.99,,,0.00,weatherlink.com 1.10,2013-01-15 06:10:00,
2013-01-14 23:28:00,-18.6,-23.0,30.00,NE,40,0.0,-999.0,78,-99.99,,,0.00,weatherlink.com 1.10,2013-01-15 06:28:00,
2013-01-14 23:44:00,-19.1,-24.0,30.01,NE,40,0.0,-999.0,78,-99.99,,,0.00,weatherlink.com 1.10,2013-01-15 06:44:00,
2013-01-14 23:58:00,-19.5,-24.0,30.01,NE,40,0.0,-999.0,78,-99.99,,,0.00,weatherlink.com 1.10,2013-01-15 06:58:00,